Regional Weather Roundup
Issued by NWS Sioux Falls, SD

Home | Current Version | Previous Version | Text Only | Print | Product List | Glossary On
Versions: 1 2 3 4 5 6 7 8 9 10 11 12 13 14 15 16 17 18 19 20 21 22 23 24 25 26 27 28 29 30 31 32 33 34 35 36 37 38 39 40 41 42 43 44 45 46 47 48 49 50
576
ASUS43 KFSD 191110
RWRFSD

WEATHER ROUNDUP FOR SE SOUTH DAKOTA/SW MINNESOTA/NW IOWA
NATIONAL WEATHER SERVICE SIOUX FALLS SD
500 AM CST THU JAN 19 2017

NOTE: "FAIR" INDICATES FEW OR NO CLOUDS BELOW 12,000 FEET WITH NO
SIGNIFICANT WEATHER AND OR OBSTRUCTIONS TO VISIBILITY.


SDZ038>040-050-052>070-191200-
SOUTHEAST SOUTH DAKOTA

CITY           SKY/WX    TMP DP  RH WIND       PRES   REMARKS
BROOKINGS      CLEAR     33  31  92 S13       29.69F WCI  24
CHAMBERLAIN    CLOUDY    34  32  94 S10       29.61F WCI  26
HURON          CLOUDY    32  32 100 S12       29.64F WCI  23
MADISON          N/A     32  32 100 S10         N/A  WCI  24
MITCHELL       CLEAR     33  33 100 SE10      29.68F WCI  25
SIOUX FALLS    CLEAR     36  34  92 S8        29.74R
WINNER         FAIR      35  29  78 SW9       29.60S WCI  28
YANKTON        CLEAR     34  30  86 SE6       29.72F WCI  29
$$

MNZ071-072-080-081-089-090-097-098-191200-
SOUTHWEST MINNESOTA

CITY           SKY/WX    TMP DP  RH WIND       PRES   REMARKS
FAIRMONT       CLEAR     34  32  92 S8        29.81S WCI  27
JACKSON        CLEAR     32  32 100 S10       29.78F WCI  24
LUVERNE        CLEAR     32  30  93 SE5       29.76S WCI  27
MARSHALL       CLEAR     38  33  82 S14       29.71S
MONTEVIDEO     CLOUDY    30  30 100 S5        29.73S WCI  25
PIPESTONE      CLEAR     36  34  93 S10       29.72S
REDWOOD FALLS  CLEAR     35  30  82 S12       29.75S WCI  27
TRACY          CLEAR     39  35  83 S17       29.72S
WINDOM           N/A     36  34  93 S9        29.77R
WORTHINGTON    CLEAR     36  32  85 S15       29.76S
$$

IAZ001>003-012>014-020>022-031-032-NEZ013-014-SDZ071-191200-
NORTHWEST IOWA

CITY           SKY/WX    TMP DP  RH WIND       PRES   REMARKS
CHEROKEE       CLEAR     33  33  99 CALM      29.81R FOG
DENISON        PTCLDY    36  34  93 S6        29.79F FOG
ESTHERVILLE    CLEAR     33  33 100 S14       29.79S FOG     WCI  23
LE MARS        CLEAR     36  34  93 S12       29.78S
ORANGE CITY    CLEAR     36  34  93 S9        29.77S
SHELDON        CLEAR     36  36 100 S10       29.76S
SIOUX CITY     CLEAR     34  32  92 SE10      29.77F WCI  26
SPENCER        CLEAR     34  33  96 S13       29.79S WCI  25
STORM LAKE     CLEAR     32  32 100 S10       29.80F FOG     WCI  24
$$

ABBREVIATIONS USED IN REMARKS
   TC - TEMPERATURE IN CELSIUS
  WCI - WIND CHILL INDEX
   HX - HEAT INDEX
  VSB - VISIBILITY





USA.gov is the U.S. government's official web portal to all federal, state and local government web resources and services.